Regional Weather Roundup
Issued by NWS

Home | Current Version | Previous Version | Graphics & Text | Print | Product List | Glossary On
Versions: 1 2 3 4 5 6 7 8 9 10 11 12 13 14 15 16 17 18 19 20 21 22 23 24 25 26 27 28 29 30 31 32 33 34 35 36 37 38 39 40 41 42 43 44 45 46 47 48 49 50
821
ASUS45 KTFX 131910
RWRMT
MONTANA REGIONAL WEATHER ROUNDUP
NATIONAL WEATHER SERVICE GREAT FALLS MT
1200 PM MST WED DEC 13 2017

NOTE: "FAIR" INDICATES FEW OR NO CLOUDS BELOW 12000 FEET WITH NO
SIGNIFICANT WEATHER AND/OR OBSTRUCTIONS TO VISIBILITY.

MTZ001>007-043-132000-
WEST OF THE DIVIDE

CITY           SKY/WX    TMP DP  RH WIND       PRES   REMARKS
KALISPELL      LGT SNOW  27  22  81 CALM      30.41F
MISSOULA       CLOUDY    26  23  88 CALM      30.38F FOG
BUTTE          SNOW      29  26  89 NW8       30.26R VSB 1/4 WCI  21
MULLAN PASS    CLOUDY    24  23  96 NW3       30.27F
ANACONDA         N/A     28  27  93 NW3       30.29F VSB 1/2
DEER LODGE       N/A     28  28 100 CALM      30.33S VSB 1/4
EUREKA           N/A     23  18  80 MISG      30.46F
HAMILTON         N/A     27  25  93 CALM      30.36F
LIBBY            N/A     30  25  80 CALM      30.44F
PLAINS           N/A     29  24  81 CALM      30.42F
RONAN            N/A     26  23  88 SE2       30.41S
$$

MTZ008-052>055-132000-
SOUTHWEST MONTANA

CITY           SKY/WX    TMP DP  RH WIND       PRES   REMARKS
BOZEMAN        SNOW      28  26  92 SE5       30.27F VSB 1/2
DILLON         LGT SNOW  33  31  92 SW3       30.22F VSB 1
W YELLOWSTONE  LGT SNOW  19  18  93 CALM      30.25F
ENNIS          LGT SNOW  32  32 100 CALM      30.27F VSB 1
THREE FORKS      N/A     25  23  91 CALM      30.23F VSB 0
TWIN BRIDGES     N/A     31  25  78 CALM      30.20F VSB 0
$$

MTZ009-010-012-014-046-048-049-054-132000-
EAST SLOPES AND CENTRAL MONTANA

CITY           SKY/WX    TMP DP  RH WIND       PRES   REMARKS
CUT BANK       FAIR      41  25  53 NW10      30.25F
GREAT FALLS    CLOUDY    36  27  69 SW13      30.26F WCI  27
MALMSTROM AFB  FAIR      36  24  62 SW9       30.27S WCI  29
HELENA         SNOW      25  23  92 CALM      30.30S VSB 1/2
BOWMANS CRNR   LGT SNOW  30  30 100 S10       30.24S WCI  21
CHOTEAU          N/A     41  19  42 NE6       30.27S
POWER          FAIR      38  28  67 W10       30.25S WCI  31
RAYNESFORD     PTSUNNY   37  25  60 W9        30.26S WCI  30
ULM            CLOUDY    36  31  82 SW12      30.27F WCI  28
$$

MTZ011-013-016-021-045-047-050-051-132000-
NORTH CENTRAL MONTANA

CITY           SKY/WX    TMP DP  RH WIND       PRES   REMARKS
HAVRE          FAIR      36  23  59 SW10      30.22F WCI  28
LEWISTOWN      FAIR      35  22  58 W6        30.21S WCI  30
N BAR RANCH    FAIR      39  18  41 NW12      30.19S WCI  32
CHINOOK          N/A     37  23  56 W16       30.20F WCI  28
DENTON         FAIR      38  20  50 MISG      30.19S
GEYSER         PTSUNNY   37  18  46 W23G31    30.22R WCI  26
GRASS RANGE    FAIR      39  20  46 W14G21    30.15F WCI  31
STANFORD       PTSUNNY   37  18  46 NW25G31   30.21R WCI  25
WINIFRED       FAIR      35  21  55 W14       30.19F WCI  26
$$

MTZ017>020-022>027-061-062-132000-
NORTHEAST MONTANA

CITY           SKY/WX    TMP DP  RH WIND       PRES   REMARKS
GLASGOW        FAIR      37  26  64 NW15      30.12F WCI  28
GLENDIVE       FAIR      40  25  55 NW17      30.09S
JORDAN           N/A     41  24  51 NW18      30.13F
SIDNEY         FAIR      39  25  57 NW18G25   30.05F WCI  30
WOLF POINT     CLOUDY    39  27  62 SW15      30.11F WCI  31
MALTA          CLOUDY    37  25  60 W13       30.17F WCI  29
PLENTYWOOD       N/A     37  25  60 NW17      30.02S WCI  28
POPLAR           N/A     41  27  56 W9        30.09S
SCOBEY           N/A     39  23  53 W18       30.04F WCI  29
$$

MTZ028>42-056>058-132000-
SOUTHCENTRAL AND SOUTHEAST MONTANA

CITY           SKY/WX    TMP DP  RH WIND       PRES   REMARKS
BAKER          FAIR     N/A N/A N/A MISG      30.07F
BILLINGS       CLOUDY    41  19  41 SW12      30.18F
LIVINGSTON     LGT SNOW  34  30  85 W15       30.23S FOG     WCI  24
MILES CITY     FAIR      43  25  49 NW17      30.12F
BIG TIMBER     SUNNY     36  32  87 W21       30.22S WCI  24
EKALAKA          N/A     37  23  57 W18       30.03F WCI  27
FORSYTH          N/A     43  21  42 W7        30.14F
LAUREL           N/A     45  18  33 SW6       30.20F
$$

REGIONAL REPORTS...DAKOTAS

CITY           SKY/WX    TMP DP  RH WIND       PRES   REMARKS
WILLISTON      FAIR      40  25  55 NW15      30.03F
MINOT          CLOUDY    36  27  69 NW22      29.92S WCI  25
DICKINSON      FAIR      38  24  57 NW22G30   29.97S WCI  27
BEACH          FAIR      37  25  60 NW15G23   30.08S WCI  28
CROSBY         CLOUDY    36  28  75 NW22G28   30.00S WCI  24
TIOGA          CLOUDY    32  30  93 NW23      29.99F WCI  19
WATFORD CITY   FAIR      37  27  65 NW20      30.01S WCI  27
BISMARCK       CLOUDY    36  26  67 NW16G30   29.95R WCI  26
GRAND FORKS    CLOUDY    25  20  81 N31G43    29.81R WCI   8
FARGO          CLOUDY    28  25  88 N20       29.79R WCI  15
BUFFALO SD       N/A     42  25  50 NW26G33   29.97F
RAPID CITY     FAIR      47  21  35 NW31G39   30.01F
$$

REGIONAL REPORTS...WYOMING/IDAHO/WASHINGTON

CITY           SKY/WX    TMP DP  RH WIND       PRES   REMARKS
GILLETTE       FAIR      42  17  36 NW15      30.09F
SHERIDAN       FAIR      46  18  32 NW15      30.12F
BUFFALO WY     FAIR      46  12  25 N18       30.10F
CODY           PTSUNNY   40  13  33 CALM      30.19S
YELLOWSTONE LA   N/A     21  19  92 CALM      30.24F
IDAHO FALLS    CLOUDY    23  20  88 SE7       30.31F FOG     WCI  15
SALMON         LGT SNOW  24  19  81 S3        30.38F
BOISE          CLOUDY    24  21  88 SW3       30.42F FOG
SPOKANE        CLOUDY    28  24  85 W5        30.48R
$$

REGIONAL REPORTS...ALBERTA

CITY           SKY/WX    TMP DP  RH WIND       PRES   REMARKS
EDMONTON       SUNNY     39  27  60 W13       30.19R WCI  32
CALGARY        MOSUNNY   37  19  48 S5        30.24S
LETHBRIDGE     PTSUNNY   41  21  45 W12       30.25F
MEDICINE HAT   PTSUNNY   41  27  56 W10       30.20F
$$

REGIONAL REPORTS...SASKATCHEWAN

CITY           SKY/WX    TMP DP  RH WIND       PRES   REMARKS
SWIFT CURRENT  PTSUNNY   32  27  80 W17G25    30.07F WCI  21
REGINA         MOSUNNY   36  28  75 W17       29.99F WCI  25
SASKATOON      MOSUNNY   34  28  80 W12       30.02F WCI  25
$$




USA.gov is the U.S. government's official web portal to all federal, state and local government web resources and services.